[[{"header":{"parameterUnit":"m.s-1","parameterCategory":1,"la1":30.2992,"la2":30.254,"lo1":-89.0895,"lo2":-89.0443,"dy":0.0025,"dx":0.0025,"nx":19,"ny":19,"refTime":"2026-03-14T03:00:00:Z","depth":0,"parameterNumber":2,"parameterNumberName":"U-component_of_WINDS"},"data":[0,0,0,-0.8202,-0.8202,-0.8175,-0.8174,-0.815,-0.815,0,0,0,0,0,0,0,0,0,0,0,-0.8216,-0.8216,-0.8202,-0.8202,-0.8175,-0.8174,-0.815,-0.815,0,0,0,0,0,0,0,0,0,0,0,-0.8216,-0.8216,-0.8216,-0.8202,-0.8175,-0.8174,-0.815,-0.8167,0,0,0,0,0,0,0,0,0,0,-0.8192,-0.8209,-0.8216,-0.8216,-0.8202,-0.8175,-0.8174,-0.8168,-0.8166,-0.8166,0,-0.8168,0,-0.8159,-0.8149,-0.8149,0,0,0,-0.8198,-0.8211,-0.8199,-0.8216,-0.8201,-0.8175,-0.8186,-0.8166,-0.8165,-0.8164,-0.8167,-0.8166,-0.8158,-0.8149,-0.8149,-0.8166,-0.8167,0,0,-0.8199,-0.8214,-0.82,-0.8198,-0.8202,-0.8187,-0.8185,-0.8165,-0.817,-0.8167,-0.8166,-0.8158,-0.8149,-0.8148,-0.8166,-0.8166,0,0,0,-0.8206,-0.8215,-0.8203,-0.8199,-0.8193,-0.8186,-0.8184,-0.817,-0.8165,-0.8165,-0.8158,-0.8148,-0.8148,-0.8166,-0.8166,-0.8194,0,0,0,-0.8207,-0.8219,-0.8204,-0.8213,-0.8194,-0.8181,-0.819,-0.8167,-0.8164,-0.8158,-0.8148,-0.8148,-0.8165,-0.8166,-0.8193,-0.8205,0,0,0,-0.8216,-0.822,-0.8218,-0.8213,-0.8202,-0.8181,-0.8175,-0.8166,-0.816,-0.8149,-0.8148,-0.8165,-0.8166,-0.8192,-0.8202,-0.8214,0,0,0,-0.8229,-0.8242,-0.8219,-0.8231,-0.8203,-0.8199,-0.8175,-0.8171,-0.8165,-0.8148,-0.8165,-0.8166,-0.8191,-0.8201,-0.8213,-0.8226,-0.8233,0,0,-0.8254,-0.8246,-0.8252,-0.823,-0.8235,-0.8202,-0.8211,-0.8191,-0.8177,-0.8171,-0.8171,-0.8193,-0.8202,-0.8214,-0.8269,-0.8275,0,0,0,-0.8265,-0.8269,-0.8268,-0.8263,-0.8249,-0.8239,-0.8216,-0.821,-0.8204,-0.8177,-0.8201,-0.8205,-0.8212,-0.8217,-0.8222,-0.8227,-0.817,-0.817,-0.8169,-0.8319,-0.8302,-0.8311,-0.8291,-0.8287,-0.8265,-0.8261,-0.8248,-0.823,-0.8236,-0.8234,-0.8269,-0.8277,-0.828,-0.8285,-0.824,-0.824,-0.824,-0.824,-0.8354,-0.8358,-0.8336,-0.8337,-0.8319,-0.832,-0.8301,-0.8289,-0.8288,-0.8269,-0.8274,-0.8254,-0.8287,-0.8291,-0.8242,-0.8242,-0.8242,-0.8241,-0.8241,-0.8387,-0.8386,-0.8379,-0.8372,-0.8369,-0.8349,-0.835,-0.8333,-0.8317,-0.8322,-0.8318,-0.8317,-0.8315,-0.8321,-0.8321,-0.8322,-0.8322,-0.8322,-0.8322,-0.8424,-0.8415,-0.8417,-0.8406,-0.8402,-0.8396,-0.8377,-0.8373,-0.8364,-0.8352,-0.8352,-0.8334,-0.8294,-0.8284,-0.8324,-0.8323,-0.8323,-0.8323,-0.8323,-0.8464,-0.8453,-0.8456,-0.8453,-0.844,-0.844,-0.842,-0.8414,-0.8408,-0.8409,-0.8392,-0.8365,-0.8355,-0.8351,-0.8343,-0.8395,-0.8395,-0.8395,-0.8395,-0.8491,-0.8485,-0.8487,-0.8483,-0.8477,-0.846,-0.8467,-0.8454,-0.8438,-0.8434,-0.8425,-0.8413,-0.8409,-0.8401,-0.8396,-0.8388,-0.8451,-0.8451,-0.8451,-0.8515,-0.8508,-0.8516,-0.8502,-0.8491,-0.8483,-0.8489,-0.8487,-0.8467,-0.8453,-0.8431,-0.8428,-0.8409,-0.8403,-0.8387,-0.8379,-0.8364,0,0]},{"header":{"parameterUnit":"m.s-1","parameterCategory":1,"la1":30.2992,"la2":30.254,"lo1":-89.0895,"lo2":-89.0443,"dy":0.0025,"dx":0.0025,"nx":19,"ny":19,"refTime":"2026-03-14T03:00:00:Z","depth":0,"parameterNumber":3,"parameterNumberName":"V-component_of_WINDS"},"data":[0,0,0,1.752,1.7519,1.746,1.746,1.7369,1.7368,0,0,0,0,0,0,0,0,0,0,0,1.753,1.7529,1.752,1.7519,1.746,1.746,1.7369,1.7368,0,0,0,0,0,0,0,0,0,0,0,1.753,1.7529,1.7528,1.7518,1.746,1.746,1.737,1.7419,0,0,0,0,0,0,0,0,0,0,1.7478,1.7481,1.753,1.7528,1.7518,1.746,1.746,1.7421,1.7416,1.739,0,1.7367,0,1.7366,1.7361,1.7361,0,0,0,1.7523,1.7485,1.7477,1.7528,1.7517,1.746,1.7488,1.7418,1.7412,1.7382,1.7366,1.7362,1.7365,1.7361,1.736,1.7199,1.7198,0,0,1.7526,1.7515,1.7481,1.7472,1.7483,1.749,1.7486,1.7415,1.7395,1.7365,1.7361,1.7363,1.736,1.7359,1.72,1.7199,0,0,0,1.7533,1.7517,1.751,1.7475,1.7466,1.7488,1.7484,1.7398,1.7397,1.736,1.7362,1.736,1.7358,1.7201,1.72,1.714,0,0,0,1.7535,1.7521,1.7511,1.7504,1.7468,1.7432,1.7468,1.7402,1.7394,1.7363,1.7359,1.7357,1.7203,1.7201,1.7144,1.7113,0,0,0,1.7536,1.7521,1.751,1.7503,1.7478,1.7434,1.7429,1.7401,1.7395,1.7361,1.7357,1.7203,1.7201,1.7148,1.7119,1.7066,0,0,0,1.7534,1.7457,1.7509,1.7425,1.7478,1.7399,1.7429,1.737,1.7333,1.7359,1.7202,1.72,1.7149,1.7123,1.707,1.7019,1.6997,0,0,1.7431,1.7445,1.7396,1.744,1.7349,1.7408,1.7307,1.7283,1.7289,1.7228,1.7225,1.7143,1.712,1.7067,1.6883,1.6865,0,0,0,1.7359,1.7324,1.7302,1.7268,1.725,1.7231,1.7225,1.7216,1.7165,1.7257,1.7111,1.7098,1.7067,1.7043,1.7028,1.7002,1.7189,1.7189,1.719,1.7195,1.7209,1.7129,1.7136,1.7102,1.7097,1.707,1.7057,1.708,1.7045,1.7026,1.6913,1.6884,1.6873,1.6846,1.7002,1.7002,1.7002,1.7002,1.7043,1.6994,1.7029,1.6963,1.6977,1.6921,1.6913,1.6931,1.6879,1.6928,1.6902,1.6952,1.6854,1.683,1.6997,1.6998,1.6999,1.6999,1.6999,1.6935,1.6914,1.6907,1.6859,1.682,1.683,1.6779,1.6794,1.6808,1.6782,1.6763,1.6764,1.6765,1.6773,1.6772,1.6772,1.6772,1.6771,1.6771,1.6825,1.6819,1.6775,1.675,1.6731,1.6706,1.6701,1.6681,1.6662,1.6677,1.6676,1.6701,1.6843,1.6877,1.6765,1.6766,1.6767,1.6767,1.6768,1.6662,1.6702,1.6634,1.6615,1.6586,1.6546,1.6567,1.6525,1.6511,1.6485,1.6516,1.6619,1.6633,1.6645,1.6673,1.6515,1.6515,1.6515,1.6515,1.6569,1.6579,1.6514,1.6481,1.645,1.6463,1.6384,1.6379,1.6379,1.6371,1.6396,1.6436,1.6447,1.6454,1.647,1.6497,1.6297,1.6297,1.6297,1.6468,1.6476,1.6407,1.6411,1.639,1.6371,1.6296,1.6255,1.6264,1.6288,1.6364,1.6373,1.6437,1.6457,1.648,1.6505,1.6553,0,0]}]]